This is the latest recevied weather packets stored in our database for station/object BARLOW-WX. If no packets are shown the sender has not sent any weather packets the latest 10 day(s).
| Time | Temp. | Humidity | Pressure | Rain* | Wind** | Luminosity | Snow |
|---|---|---|---|---|---|---|---|
| 1788025576 | 25.56° C | 54% | 993.4 hPa | 0 mm | - | - | - |
| 1788024677 | 25.56° C | 51% | 993.1 hPa | 0 mm | - | - | - |
| 1788023778 | 25.56° C | 51% | 993.1 hPa | 0 mm | - | - | - |
| 1788022881 | 25.56° C | 51% | 993.1 hPa | 0 mm | - | - | - |
| 1788021978 | 25° C | 54% | 993.4 hPa | 0 mm | - | - | - |
| 1788021077 | 25.56° C | 47% | 992.9 hPa | 0 mm | - | - | - |
| 1788020176 | 25° C | 47% | 992.9 hPa | 0 mm | - | - | - |
| 1788019277 | 25° C | 47% | 992.9 hPa | 0 mm | - | - | - |
| 1788018378 | 25° C | 60% | 993.5 hPa | 0 mm | - | - | - |
| 1788016576 | 23.89° C | 56% | 993.4 hPa | 0 mm | - | - | - |
| 1788015677 | 23.33° C | 56% | 993.4 hPa | 0 mm | - | - | - |
| 1788014775 | 22.78° C | 69% | 992.7 hPa | 0 mm | - | - | - |
| 1788013882 | 22.78° C | 61% | 993.3 hPa | 0 mm | - | - | - |
| 1788012990 | 22.22° C | 61% | 993.3 hPa | 0 mm | - | - | - |
| 1788012081 | 21.67° C | 61% | 993.3 hPa | 0 mm | - | - | - |
| 1788011172 | 21.11° C | 76% | 992.4 hPa | 0 mm | - | - | - |
| 1788010280 | 20.56° C | 76% | 992.4 hPa | 0 mm | - | - | - |
| 1788009373 | 20° C | 76% | 992.4 hPa | 0 mm | - | - | - |
| 1788008473 | 18.89° C | 76% | 992.4 hPa | 0 mm | - | - | - |
| 1788007579 | 18.33° C | 80% | 993 hPa | 0 mm | - | - | - |
| 1788006675 | 17.22° C | 80% | 992.8 hPa | 0 mm | - | - | - |
| 1788005773 | 16.67° C | 80% | 992.8 hPa | 0 mm | - | - | - |
| 1788004874 | 16.11° C | 80% | 992.8 hPa | 0 mm | - | - | - |
| 1788003973 | 16.11° C | 81% | 992.4 hPa | 0 mm | - | - | - |
| 1788003074 | 15.56° C | 80% | 992.2 hPa | 0 mm | - | - | - |
* Rain latest hour (hover to see other rain measurements)
** Current wind speed in m/s (hover to see current wind gust speed)